Regional Weather Roundup
Issued by NWS Lake Charles, LA

Home | Current Version | Previous Version | Text Only | Print | Product List | Glossary On
Versions: 1 2 3 4 5 6 7 8 9 10 11 12 13 14 15 16 17 18 19 20 21 22 23 24 25 26 27 28 29 30 31 32 33 34 35 36 37 38 39 40 41 42 43 44 45 46 47 48 49 50
000
ASUS44 KLCH 261410
RWRLCH
REGIONAL WEATHER ROUNDUP
NATIONAL WEATHER SERVICE LAKE CHARLES LA
900 AM CDT TUE JUL 26 2016

Note: "fair" indicates few or no clouds below 12,000 feet with no
significant weather and/or obstructions to visibility.


ACROSS SOUTHEAST TEXAS

CITY           SKY/WX    TMP DP  RH WIND       PRES   REMARKS
BEAUMONT       SUNNY     81  75  82 NE8       29.93S
BEAUMONT CITY  FAIR      79  74  84 CALM      29.95R
ORANGE         SUNNY     78  76  94 NE3       29.95S FOG
JASPER         SUNNY     77  73  85 E5        29.97S
$$

ACROSS CENTRAL LOUISIANA

CITY           SKY/WX    TMP DP  RH WIND       PRES   REMARKS
LEESVILLE      NOT AVBL
FULLERTON      CLOUDY    77  74  90 VRB3      29.94R
ALEXANDRIA INT CLOUDY    76  76 100 E5        29.95S FOG
ESLER FIELD    CLOUDY    77  76  96 E3        29.96S
DERIDDER       NOT AVBL
OAKDALE        CLOUDY    76  75  98 CALM      29.96R
OPELOUSAS      CLOUDY    77  74  93 NE3       29.95S
$$

ACROSS SOUTHWEST AND SOUTH CENTRAL LOUISIANA

CITY           SKY/WX    TMP DP  RH WIND       PRES   REMARKS
SULPHUR        MOSUNNY   79  76  93 NE3       29.95S
LAKE CHARLES   PTSUNNY   76  74  93 E5        29.94S
CHENNAULT INT  NOT AVBL
CAMERON PHI    SUNNY     79  75  89 NE9       29.93S
DEQUINCY       CLOUDY    73  73 100 CALM      29.95S FOG
JENNINGS       NOT AVBL
LAFAYETTE      CLOUDY    78  75  90 N6        29.94F FOG
NEW IBERIA     CLOUDY    77  75  93 N3        29.95R FOG
ABBEVILLE      CLOUDY    75  75 100 E3        29.95R FOG
PATTERSON      PTSUNNY   80  77  90 E5        29.94S
SALT POINT       N/A     82  74  76 CALM        N/A
$$

SELECTED SITES ACROSS THE REGION

CITY           SKY/WX    TMP DP  RH WIND       PRES   REMARKS
HOUSTON BUSH   PTSUNNY   80  76  87 CALM      29.94S
HOUSTON HOBBY  LGT RAIN  78  74  87 CALM      29.93S
GALVESTON      CLOUDY    79  77  94 NW5       29.95R
COLLEGE STAT   PTSUNNY   78  74  87 NE7       29.97R
CONROE         CLOUDY    77  75  93 NE3       29.96R FOG
HUNTSVILLE     CLOUDY    77  75  93 NE3       29.97R
LUFKIN         PTSUNNY   76  75  97 CALM      29.96S
SHREVEPORT     MOSUNNY   83  76  79 VRB3      29.96S
MONROE         SUNNY     83  77  82 E6        29.99R
NATCHEZ MS     SUNNY     81  73  78 E7        29.97R
BATON ROUGE    SUNNY     81  75  82 VRB3      29.94F
N.O. INTL ARPT PTSUNNY   85  75  72 NE5       29.93S
SLIDELL        CLOUDY    79  76  90 NE6       29.94F
$$

MARINE REPORTS

STATION/POSITION TIME  SKY/WX   TEMP    WIND        PRES    VSBY
                                AIR SEA DIR/SP/G
                 (UTC)          (F)     (DEG/KT/KT) (MB)    (MI)
BUOY 30 S HIGH I 1350            81 87   10/  4/  6 1013.9R
WVE H/P(F/S)=  1/ 5

SEA RIM ST PARK  1400            79      50/  6/  8 1014.4R
PORT ARTHUR      1300               88   40/  4/  6 1013.8F
SABINE PASS N    1300            77 87   50/  7/ 10 1014.9S
TEXAS POINT      NOT AVBL
CALCASIEU PASS   1300            77 87   50/  6/  7 1013.0S
LK CHARLES BEACH 1300            75 87              1014.2F
MARSH ISLAND     1300            79                   N/A
FRESH WATER LOCK 1300            77 87   30/  4/  5 1014.1F
AMERADA PASS     1300            81 86  310/  3/  4 1013.4F
$$



USA.gov is the U.S. government's official web portal to all federal, state and local government web resources and services.